User: anonymous   Login
Location: Four Corners
(38.2757°N, 122.4608°W)
Time: 13:36:58
(UTC+00:00)
Language:

SL-16 R/B - Orbit

View from above orbital plane
View from above orbital plane
View from above satellite
View from above satellite

Ground track
Ground track

The orbit data is extracted from the following two-line orbital elements,

1 28353U 04021B   20052.78383627 -.00000322  00000-0 -14379-3 0  9997
2 28353  70.9994 184.0163 0004628 181.2290 178.8821 14.14224320810655
Epoch (UTC): 21 February 2020 18:48:43
Eccentricity: 0.0004628
inclination: 70.9994°
perigee height: 841 km
apogee height: 848 km
right ascension of ascending node: 184.0163°
argument of perigee: 181.2290°
revolutions per day: 14.14224320
mean anomaly at epoch: 178.8821°
orbit number at epoch: 81065

The dashed part of the orbit path shows where the satellite is in the earth's shadow,  

DLR